Location: The Saddle
(36.8333°N, 80.3417°W)
Time: 15:15:07
(UTC-05:00)

S-56A Canister/Altair - Pass Details

Date: 10 December 2023
Orbit: 639 x 2488 km, 38.9° (Epoch: 03 March)

Event Time Altitude Azimuth Distance (km) Brightness Sun altitude
Rises 13:42:46 0° 283° (WNW) 3,038 10.7 26.7°
Reaches altitude 10° 13:45:09 10° 284° (WNW) 2,052 9.9 26.5°
Maximum altitude 13:49:39 86° 12° (NNE) 648 7.6 26.1°
Drops below altitude 10° 13:54:27 10° 103° (ESE) 2,175 9.8 25.7°
Sets 13:57:02 0° 103° (ESE) 3,239 10.6 25.5°
